| time (UTC) | temp F | wind direction | speed MPH | gust MPH | rain 1hr in | rain 24hr in | rain mn in | humidity % | barometer mb |
| 20260901223307 | 64 | 194 | 3.0 | 12.0 | 0.01 | 0.01 | 0.01 | 75 | 1009.3 |
| 20260901222750 | 64 | 236 | 3.0 | 7.0 | 0.01 | 0.01 | 0.01 | 79 | 1009.3 |
| 20260901222249 | 65 | 271 | 2.0 | 7.0 | 0.01 | 0.01 | 0.01 | 76 | 1009.3 |
| 20260901221739 | 64 | 157 | 1.0 | 4.0 | 0.01 | 0.01 | 0.01 | 78 | 1009.3 |
| 20260901221232 | 64 | 238 | 2.0 | 4.0 | 0.01 | 0.01 | 0.01 | 78 | 1009.3 |
| 20260901221047 | 63 | 233 | 1.0 | 4.0 | 0.01 | 0.01 | 0.01 | 78 | 1009.5 |
| 20260901220531 | 63 | 202 | 2.0 | 4.0 | 0.01 | 0.01 | 0.01 | 79 | 1009.5 |
| 20260901215707 | 63 | 254 | 3.0 | 5.0 | 0.01 | 0.01 | 0.01 | 79 | 1009.5 |
| 20260901215215 | 63 | 223 | 2.0 | 5.0 | 0.01 | 0.01 | 0.01 | 79 | 1009.7 |
| 20260901214707 | 63 | 185 | 3.0 | 6.0 | 0.01 | 0.01 | 0.01 | 80 | 1009.7 |
| 20260901214250 | 63 | 224 | 2.0 | 6.0 | 0.01 | 0.01 | 0.01 | 79 | 1009.7 |
| 20260901213202 | 63 | 348 | 4.0 | 7.0 | 0.00 | 0.00 | 0.00 | 78 | 1009.5 |
| 20260901212707 | 62 | 14 | 6.0 | 10.0 | 0.00 | 0.00 | 0.00 | 78 | 1009.5 |
| 20260901212206 | 63 | 359 | 6.0 | 10.0 | 0.00 | 0.00 | 0.00 | 78 | 1009.6 |
| 20260901212025 | 63 | 4 | 6.0 | 10.0 | 0.00 | 0.00 | 0.00 | 77 | 1009.6 |
| 20260901211517 | 64 | 15 | 4.0 | 7.0 | 0.00 | 0.00 | 0.00 | 74 | 1009.6 |
| 20260901210712 | 64 | 308 | 3.0 | 9.0 | 0.00 | 0.00 | 0.00 | 72 | 1009.7 |
| 20260901210208 | 64 | 152 | 3.0 | 9.0 | 0.00 | 0.00 | 0.00 | 71 | 1009.7 |
| 20260901210019 | 64 | 173 | 4.0 | 7.0 | 0.00 | 0.00 | 0.00 | 71 | 1009.7 |
| 20260901205202 | 64 | 181 | 5.0 | 10.0 | 0.00 | 0.00 | 0.00 | 72 | 1009.7 |
| 20260901204701 | 64 | 204 | 5.0 | 10.0 | 0.00 | 0.00 | 0.00 | 71 | 1009.7 |
| 20260901204202 | 64 | 247 | 5.0 | 10.0 | 0.00 | 0.00 | 0.00 | 72 | 1009.7 |
| 20260901204014 | 64 | 208 | 5.0 | 12.0 | 0.00 | 0.00 | 0.00 | 71 | 1009.7 |
| 20260901203201 | 64 | 219 | 5.0 | 12.0 | 0.00 | 0.00 | 0.00 | 71 | 1009.7 |
| 20260901202712 | 64 | 223 | 5.0 | 14.0 | 0.00 | 0.00 | 0.00 | 71 | 1009.7 |
| 20260901202203 | 64 | 265 | 5.0 | 14.0 | 0.00 | 0.00 | 0.00 | 71 | 1009.7 |
| 20260901201700 | 64 | 204 | 5.0 | 11.0 | 0.00 | 0.00 | 0.00 | 71 | 1009.7 |
| 20260901201157 | 64 | 233 | 5.0 | 10.0 | 0.00 | 0.00 | 0.00 | 70 | 1009.7 |
| 20260901200655 | 64 | 241 | 6.0 | 12.0 | 0.00 | 0.00 | 0.00 | 70 | 1009.7 |
| 20260901200139 | 64 | 227 | 8.0 | 14.0 | 0.00 | 0.00 | 0.00 | 70 | 1009.7 |
| 20260901195639 | 65 | 213 | 7.0 | 14.0 | 0.00 | 0.00 | 0.00 | 70 | 1009.7 |
| 20260901195135 | 65 | 213 | 5.0 | 11.0 | 0.00 | 0.00 | 0.00 | 68 | 1009.7 |
| 20260901194626 | 65 | 236 | 5.0 | 11.0 | 0.00 | 0.00 | 0.00 | 67 | 1009.7 |
| 20260901194427 | 65 | 264 | 5.0 | 10.0 | 0.00 | 0.00 | 0.00 | 67 | 1009.7 |
| 20260901193612 | 65 | 235 | 5.0 | 13.0 | 0.00 | 0.00 | 0.00 | 67 | 1009.7 |
| 20260901193115 | 66 | 209 | 4.0 | 13.0 | 0.00 | 0.00 | 0.00 | 66 | 1009.7 |
| 20260901192614 | 66 | 199 | 5.0 | 12.0 | 0.00 | 0.00 | 0.00 | 67 | 1009.7 |
| 20260901192201 | 65 | 264 | 6.0 | 12.0 | 0.00 | 0.00 | 0.00 | 67 | 1009.7 |
| 20260901191111 | 65 | 235 | 7.0 | 16.0 | 0.00 | 0.00 | 0.00 | 66 | 1009.7 |
| 20260901190611 | 66 | 238 | 6.0 | 16.0 | 0.00 | 0.00 | 0.00 | 66 | 1009.7 |
| 20260901190106 | 66 | 226 | 5.0 | 14.0 | 0.00 | 0.00 | 0.00 | 66 | 1009.7 |
| 20260901185607 | 66 | 225 | 5.0 | 14.0 | 0.00 | 0.00 | 0.00 | 68 | 1009.7 |
| 20260901185105 | 66 | 171 | 6.0 | 16.0 | 0.00 | 0.00 | 0.00 | 67 | 1009.7 |
| 20260901184606 | 65 | 244 | 7.0 | 16.0 | 0.00 | 0.00 | 0.00 | 66 | 1009.7 |
| 20260901184105 | 66 | 206 | 6.0 | 14.0 | 0.00 | 0.00 | 0.00 | 66 | 1009.7 |
| 20260901183604 | 66 | 171 | 4.0 | 10.0 | 0.00 | 0.00 | 0.00 | 67 | 1009.7 |
| 20260901183106 | 66 | 227 | 4.0 | 10.0 | 0.00 | 0.00 | 0.00 | 66 | 1009.7 |
| 20260901182905 | 65 | 248 | 5.0 | 10.0 | 0.00 | 0.00 | 0.00 | 68 | 1009.7 |
| 20260901182107 | 66 | 235 | 5.0 | 10.0 | 0.00 | 0.00 | 0.00 | 68 | 1009.7 |
| 20260901181606 | 66 | 248 | 5.0 | 10.0 | 0.00 | 0.00 | 0.00 | 67 | 1009.7 |
| 20260901181105 | 65 | 246 | 5.0 | 11.0 | 0.00 | 0.00 | 0.00 | 67 | 1009.5 |
| 20260901180600 | 65 | 226 | 6.0 | 13.0 | 0.00 | 0.00 | 0.00 | 68 | 1009.5 |
| 20260901180321 | 65 | 226 | 6.0 | 13.0 | 0.00 | 0.00 | 0.00 | 68 | 1009.5 |
| 20260901180058 | 65 | 226 | 6.0 | 13.0 | 0.00 | 0.00 | 0.00 | 68 | 1009.5 |
| 20260901175547 | 65 | 182 | 4.0 | 10.0 | 0.00 | 0.00 | 0.00 | 68 | 1009.4 |
| 20260901175046 | 65 | 219 | 4.0 | 9.0 | 0.00 | 0.00 | 0.00 | 68 | 1009.4 |
| 20260901174542 | 65 | 196 | 5.0 | 9.0 | 0.00 | 0.00 | 0.00 | 69 | 1009.4 |
| 20260901174042 | 64 | 162 | 5.0 | 12.0 | 0.00 | 0.00 | 0.00 | 70 | 1009.5 |
| 20260901173837 | 64 | 170 | 6.0 | 12.0 | 0.00 | 0.00 | 0.00 | 71 | 1009.5 |
| 20260901173301 | 64 | 219 | 6.0 | 11.0 | 0.00 | 0.00 | 0.00 | 70 | 1009.5 |
| 20260901173038 | 64 | 219 | 6.0 | 11.0 | 0.00 | 0.00 | 0.00 | 70 | 1009.5 |
| 20260901172536 | 64 | 192 | 5.0 | 11.0 | 0.00 | 0.00 | 0.00 | 71 | 1009.5 |
| 20260901172033 | 64 | 185 | 5.0 | 12.0 | 0.00 | 0.00 | 0.00 | 72 | 1009.5 |
| 20260901171534 | 64 | 213 | 5.0 | 12.0 | 0.00 | 0.00 | 0.00 | 71 | 1009.5 |
| 20260901171033 | 64 | 229 | 6.0 | 11.0 | 0.00 | 0.00 | 0.00 | 72 | 1009.3 |
| 20260901170800 | 64 | 235 | 6.0 | 12.0 | 0.00 | 0.00 | 0.00 | 71 | 1009.3 |
| 20260901170037 | 64 | 226 | 5.0 | 12.0 | 0.00 | 0.00 | 0.00 | 70 | 1009.3 |
| 20260901165837 | 64 | 186 | 5.0 | 15.0 | 0.00 | 0.00 | 0.00 | 70 | 1009.4 |
| 20260901165031 | 64 | 217 | 5.0 | 15.0 | 0.00 | 0.00 | 0.00 | 71 | 1009.4 |
| 20260901164833 | 64 | 181 | 6.0 | 12.0 | 0.00 | 0.00 | 0.00 | 72 | 1009.4 |
| 20260901164037 | 64 | 199 | 5.0 | 12.0 | 0.00 | 0.00 | 0.00 | 72 | 1009.4 |
| 20260901163529 | 64 | 169 | 5.0 | 10.0 | 0.00 | 0.00 | 0.00 | 72 | 1009.4 |
| 20260901163029 | 63 | 197 | 6.0 | 10.0 | 0.00 | 0.00 | 0.00 | 73 | 1009.4 |
| 20260901162837 | 63 | 152 | 6.0 | 10.0 | 0.00 | 0.00 | 0.00 | 73 | 1009.5 |
| 20260901162328 | 63 | 221 | 6.0 | 12.0 | 0.00 | 0.00 | 0.00 | 73 | 1009.5 |
| 20260901161529 | 63 | 227 | 5.0 | 12.0 | 0.00 | 0.00 | 0.00 | 72 | 1009.5 |
| 20260901161019 | 63 | 222 | 5.0 | 10.0 | 0.00 | 0.00 | 0.00 | 73 | 1009.6 |
| 20260901160513 | 63 | 238 | 6.0 | 13.0 | 0.00 | 0.00 | 0.00 | 73 | 1009.6 |
| 20260901160007 | 63 | 254 | 6.0 | 13.0 | 0.00 | 0.00 | 0.00 | 73 | 1009.6 |
| 20260901155501 | 63 | 257 | 4.0 | 11.0 | 0.00 | 0.00 | 0.00 | 74 | 1009.6 |
| 20260901154956 | 63 | 269 | 4.0 | 8.0 | 0.00 | 0.00 | 0.00 | 75 | 1009.6 |
| 20260901154453 | 62 | 250 | 5.0 | 8.0 | 0.00 | 0.00 | 0.00 | 76 | 1009.6 |
| 20260901153946 | 62 | 207 | 5.0 | 8.0 | 0.00 | 0.00 | 0.00 | 77 | 1009.7 |
| 20260901153437 | 62 | 227 | 5.0 | 12.0 | 0.00 | 0.00 | 0.00 | 77 | 1009.7 |
| 20260901152931 | 61 | 174 | 4.0 | 10.0 | 0.00 | 0.00 | 0.00 | 79 | 1009.7 |
| 20260901152431 | 61 | 207 | 3.0 | 7.0 | 0.00 | 0.00 | 0.00 | 80 | 1009.7 |
| 20260901151930 | 60 | 191 | 1.0 | 4.0 | 0.00 | 0.00 | 0.00 | 82 | 1009.7 |
| 20260901151435 | 60 | 111 | 1.0 | 3.0 | 0.00 | 0.00 | 0.00 | 83 | 1009.7 |
| 20260901150907 | 59 | 59 | 1.0 | 2.0 | 0.00 | 0.00 | 0.00 | 84 | 1009.7 |
| 20260901150401 | 59 | 13 | 1.0 | 3.0 | 0.00 | 0.00 | 0.00 | 85 | 1009.7 |
| 20260901145859 | 58 | 42 | 1.0 | 3.0 | 0.00 | 0.00 | 0.00 | 86 | 1009.7 |
| 20260901145345 | 58 | 48 | 1.0 | 2.0 | 0.00 | 0.00 | 0.00 | 86 | 1009.6 |
| 20260901144848 | 58 | 136 | 1.0 | 1.0 | 0.00 | 0.00 | 0.00 | 86 | 1009.6 |
| 20260901144625 | 57 | 136 | 1.0 | 1.0 | 0.00 | 0.00 | 0.00 | 86 | 1009.6 |
| 20260901144323 | 57 | 136 | 0.0 | 1.0 | 0.00 | 0.00 | 0.00 | 87 | 1009.5 |
| 20260901143332 | 57 | 202 | 1.0 | 2.0 | 0.00 | 0.00 | 0.00 | 87 | 1009.5 |
| 20260901142831 | 57 | 202 | 1.0 | 3.0 | 0.00 | 0.00 | 0.00 | 87 | 1009.5 |
| 20260901142629 | 57 | 198 | 2.0 | 3.0 | 0.00 | 0.00 | 0.00 | 87 | 1009.6 |
| 20260901142232 | 57 | 225 | 2.0 | 3.0 | 0.00 | 0.00 | 0.00 | 87 | 1009.6 |
| 20260901141334 | 57 | 187 | 2.0 | 4.0 | 0.00 | 0.00 | 0.00 | 87 | 1009.6 |
| 20260901140837 | 57 | 186 | 2.0 | 4.0 | 0.00 | 0.00 | 0.00 | 87 | 1009.4 |
| 20260901140651 | 56 | 211 | 2.0 | 4.0 | 0.00 | 0.00 | 0.00 | 87 | 1009.4 |
| 20260901135843 | 56 | 266 | 2.0 | 4.0 | 0.00 | 0.00 | 0.00 | 87 | 1009.4 |
| 20260901135327 | 56 | 245 | 2.0 | 5.0 | 0.00 | 0.00 | 0.00 | 87 | 1009.3 |
| 20260901134826 | 56 | 221 | 2.0 | 5.0 | 0.00 | 0.00 | 0.00 | 87 | 1009.3 |
| 20260901134322 | 56 | 225 | 2.0 | 4.0 | 0.00 | 0.00 | 0.00 | 87 | 1009.3 |
| 20260901133824 | 56 | 243 | 2.0 | 4.0 | 0.00 | 0.00 | 0.00 | 87 | 1009.3 |
| 20260901133319 | 56 | 236 | 2.0 | 5.0 | 0.00 | 0.00 | 0.00 | 87 | 1009.3 |
| 20260901132927 | 56 | 201 | 3.0 | 5.0 | 0.00 | 0.00 | 0.00 | 87 | 1009.3 |
| 20260901131811 | 56 | 221 | 1.0 | 4.0 | 0.00 | 0.00 | 0.00 | 86 | 1009.3 |
| 20260901131309 | 56 | 247 | 2.0 | 5.0 | 0.00 | 0.00 | 0.00 | 86 | 1009.3 |
| 20260901130809 | 56 | 229 | 2.0 | 5.0 | 0.00 | 0.00 | 0.00 | 86 | 1009.4 |
| 20260901130304 | 56 | 238 | 2.0 | 5.0 | 0.00 | 0.00 | 0.00 | 86 | 1009.4 |
| 20260901130123 | 56 | 269 | 2.0 | 3.0 | 0.00 | 0.00 | 0.00 | 86 | 1009.4 |
| 20260901125309 | 56 | 246 | 1.0 | 2.0 | 0.00 | 0.00 | 0.00 | 85 | 1009.2 |
| 20260901124808 | 56 | 269 | 1.0 | 2.0 | 0.00 | 0.00 | 0.00 | 85 | 1009.2 |
| 20260901124309 | 57 | 248 | 1.0 | 2.0 | 0.00 | 0.00 | 0.00 | 85 | 1009.2 |
| 20260901123801 | 57 | 204 | 1.0 | 2.0 | 0.00 | 0.00 | 0.00 | 85 | 1009.2 |
| 20260901123620 | 57 | 220 | 2.0 | 4.0 | 0.00 | 0.00 | 0.00 | 85 | 1009.2 |
| 20260901122803 | 57 | 233 | 2.0 | 4.0 | 0.00 | 0.00 | 0.00 | 85 | 1009.2 |
| 20260901122307 | 57 | 220 | 1.0 | 3.0 | 0.00 | 0.00 | 0.00 | 85 | 1009.2 |
| 20260901121809 | 57 | 243 | 1.0 | 3.0 | 0.00 | 0.00 | 0.00 | 84 | 1009.2 |
| 20260901121304 | 57 | 224 | 1.0 | 2.0 | 0.00 | 0.00 | 0.00 | 84 | 1009.2 |
| 20260901120803 | 57 | 209 | 1.0 | 2.0 | 0.00 | 0.00 | 0.00 | 84 | 1009.1 |
| 20260901120302 | 57 | 246 | 1.0 | 3.0 | 0.00 | 0.00 | 0.00 | 84 | 1009.1 |
| 20260901115805 | 57 | 240 | 1.0 | 3.0 | 0.00 | 0.00 | 0.00 | 83 | 1009.1 |
| 20260901115308 | 57 | 182 | 1.0 | 2.0 | 0.00 | 0.00 | 0.00 | 83 | 1009.1 |
| 20260901114803 | 57 | 182 | 1.0 | 3.0 | 0.00 | 0.00 | 0.00 | 84 | 1009.1 |
| 20260901114537 | 57 | 219 | 1.0 | 3.0 | 0.00 | 0.00 | 0.00 | 84 | 1009.1 |
| 20260901113808 | 57 | 179 | 1.0 | 2.0 | 0.00 | 0.00 | 0.00 | 84 | 1009.0 |
| 20260901113315 | 56 | 269 | 1.0 | 1.0 | 0.00 | 0.00 | 0.00 | 84 | 1009.0 |
| 20260901112812 | 56 | 269 | 0.0 | 1.0 | 0.00 | 0.00 | 0.00 | 84 | 1009.0 |
| 20260901112256 | 56 | 269 | 0.0 | 1.0 | 0.00 | 0.00 | 0.00 | 84 | 1008.9 |
| 20260901111744 | 56 | 269 | 0.0 | 1.0 | 0.00 | 0.00 | 0.00 | 83 | 1008.9 |
| 20260901111246 | 56 | 269 | 0.0 | 0.0 | 0.00 | 0.00 | 0.00 | 83 | 1008.9 |
| 20260901111156 | 56 | 269 | 0.0 | 0.0 | 0.00 | 0.00 | 0.00 | 83 | 1008.7 |
| 20260901105735 | 57 | 269 | 0.0 | 1.0 | 0.00 | 0.00 | 0.00 | 82 | 1008.7 |
| 20260901105208 | 57 | 269 | 0.0 | 1.0 | 0.00 | 0.00 | 0.00 | 82 | 1008.7 |
| 20260901104950 | 57 | 269 | 1.0 | 2.0 | 0.00 | 0.00 | 0.00 | 82 | 1008.7 |
| 20260901104201 | 57 | 269 | 1.0 | 2.0 | 0.00 | 0.00 | 0.00 | 82 | 1008.7 |
| 20260901103705 | 57 | 225 | 1.0 | 2.0 | 0.00 | 0.00 | 0.00 | 82 | 1008.7 |
| 20260901103201 | 57 | 226 | 1.0 | 3.0 | 0.00 | 0.00 | 0.00 | 82 | 1008.7 |
| 20260901102703 | 57 | 204 | 1.0 | 3.0 | 0.00 | 0.00 | 0.00 | 82 | 1008.7 |
| 20260901102202 | 57 | 234 | 1.0 | 2.0 | 0.00 | 0.00 | 0.00 | 81 | 1008.6 |
| 20260901101702 | 58 | 234 | 1.0 | 3.0 | 0.00 | 0.00 | 0.00 | 81 | 1008.6 |
| 20260901101202 | 58 | 238 | 1.0 | 3.0 | 0.00 | 0.00 | 0.00 | 81 | 1008.6 |
| 20260901100714 | 58 | 244 | 0.0 | 2.0 | 0.00 | 0.00 | 0.00 | 81 | 1008.4 |
| 20260901100159 | 58 | 242 | 1.0 | 1.0 | 0.00 | 0.00 | 0.00 | 80 | 1008.4 |
| 20260901095634 | 58 | 242 | 0.0 | 1.0 | 0.00 | 0.00 | 0.00 | 80 | 1008.2 |
| 20260901095145 | 58 | 242 | 0.0 | 1.0 | 0.00 | 0.00 | 0.00 | 80 | 1008.2 |
| 20260901094631 | 58 | 242 | 1.0 | 2.0 | 0.00 | 0.00 | 0.00 | 80 | 1008.2 |
| 20260901094415 | 58 | 242 | 1.0 | 2.0 | 0.00 | 0.00 | 0.00 | 80 | 1008.3 |
| 20260901093629 | 58 | 242 | 1.0 | 2.0 | 0.00 | 0.00 | 0.00 | 80 | 1008.3 |
| 20260901093138 | 58 | 242 | 0.0 | 1.0 | 0.00 | 0.00 | 0.00 | 80 | 1008.3 |
| 20260901092633 | 58 | 242 | 0.0 | 1.0 | 0.00 | 0.00 | 0.00 | 79 | 1008.3 |
| 20260901092135 | 59 | 245 | 1.0 | 2.0 | 0.00 | 0.00 | 0.00 | 78 | 1008.3 |
| 20260901091637 | 59 | 245 | 1.0 | 2.0 | 0.00 | 0.00 | 0.00 | 78 | 1008.3 |
| 20260901091427 | 59 | 227 | 1.0 | 2.0 | 0.00 | 0.00 | 0.00 | 78 | 1008.5 |
| 20260901090622 | 59 | 243 | 2.0 | 4.0 | 0.00 | 0.00 | 0.00 | 78 | 1008.5 |
| 20260901090121 | 59 | 220 | 2.0 | 4.0 | 0.00 | 0.00 | 0.00 | 78 | 1008.5 |
| 20260901085620 | 59 | 244 | 1.0 | 3.0 | 0.00 | 0.00 | 0.00 | 79 | 1008.5 |
| 20260901085117 | 59 | 245 | 1.0 | 2.0 | 0.00 | 0.00 | 0.00 | 79 | 1008.5 |
| 20260901084619 | 59 | 226 | 0.0 | 2.0 | 0.00 | 0.00 | 0.00 | 79 | 1008.5 |
| 20260901084415 | 59 | 140 | 0.0 | 2.0 | 0.00 | 0.00 | 0.00 | 78 | 1008.2 |
| 20260901083618 | 59 | 136 | 0.0 | 2.0 | 0.00 | 0.00 | 0.00 | 78 | 1008.2 |
| 20260901083105 | 59 | 29 | 0.0 | 0.0 | 0.00 | 0.00 | 0.00 | 76 | 1008.2 |
| 20260901082558 | 59 | 29 | 0.0 | 1.0 | 0.00 | 0.00 | 0.00 | 76 | 1008.2 |
| 20260901082044 | 59 | 29 | 0.0 | 1.0 | 0.00 | 0.00 | 0.00 | 77 | 1008.2 |
| 20260901081539 | 59 | 29 | 0.0 | 1.0 | 0.00 | 0.00 | 0.00 | 77 | 1008.2 |
| 20260901081037 | 59 | 29 | 0.0 | 1.0 | 0.00 | 0.00 | 0.00 | 76 | 1008.2 |
| 20260901080537 | 59 | 29 | 0.0 | 1.0 | 0.00 | 0.00 | 0.00 | 75 | 1008.2 |
| 20260901080037 | 59 | 29 | 0.0 | 1.0 | 0.00 | 0.00 | 0.00 | 75 | 1008.2 |
| 20260901075550 | 60 | 29 | 1.0 | 2.0 | 0.00 | 0.00 | 0.00 | 74 | 1008.1 |
| 20260901075032 | 60 | 29 | 1.0 | 2.0 | 0.00 | 0.00 | 0.00 | 76 | 1008.1 |
| 20260901074533 | 60 | 29 | 1.0 | 2.0 | 0.00 | 0.00 | 0.00 | 74 | 1008.1 |
| 20260901074035 | 60 | 273 | 1.0 | 1.0 | 0.00 | 0.00 | 0.00 | 74 | 1008.1 |
| 20260901073516 | 61 | 225 | 1.0 | 1.0 | 0.00 | 0.00 | 0.00 | 76 | 1008.1 |
| 20260901073014 | 61 | 225 | 0.0 | 1.0 | 0.00 | 0.00 | 0.00 | 73 | 1008.1 |
| 20260901072519 | 61 | 207 | 0.0 | 2.0 | 0.00 | 0.00 | 0.00 | 73 | 1008.1 |
| 20260901072330 | 61 | 207 | 0.0 | 2.0 | 0.00 | 0.00 | 0.00 | 73 | 1008.1 |
| 20260901071013 | 62 | 213 | 1.0 | 3.0 | 0.00 | 0.00 | 0.00 | 71 | 1007.8 |
| 20260901070512 | 61 | 359 | 1.0 | 2.0 | 0.00 | 0.00 | 0.00 | 71 | 1007.8 |
| 20260901070009 | 62 | 359 | 1.0 | 2.0 | 0.00 | 0.00 | 0.00 | 71 | 1007.8 |
| 20260901065506 | 62 | 359 | 1.0 | 2.0 | 0.00 | 0.00 | 0.00 | 72 | 1007.7 |
| 20260901065113 | 62 | 359 | 0.0 | 1.0 | 0.00 | 0.00 | 0.00 | 72 | 1007.7 |
| 20260901063951 | 62 | 359 | 0.0 | 0.0 | 0.00 | 0.00 | 0.00 | 70 | 1007.7 |
| 20260901063433 | 62 | 359 | 0.0 | 1.0 | 0.00 | 0.00 | 0.00 | 71 | 1007.7 |
| 20260901063234 | 62 | 359 | 1.0 | 1.0 | 0.00 | 0.00 | 0.00 | 71 | 1007.7 |
| 20260901062411 | 62 | 359 | 1.0 | 2.0 | 0.00 | 0.00 | 0.00 | 69 | 1007.7 |
| 20260901061910 | 62 | 359 | 1.0 | 2.0 | 0.00 | 0.00 | 0.00 | 68 | 1007.7 |
| 20260901061403 | 62 | 359 | 2.0 | 3.0 | 0.00 | 0.00 | 0.00 | 70 | 1007.7 |
| 20260901060904 | 62 | 359 | 2.0 | 3.0 | 0.00 | 0.00 | 0.00 | 68 | 1007.7 |
| 20260901060401 | 63 | 13 | 2.0 | 3.0 | 0.00 | 0.00 | 0.00 | 71 | 1007.7 |
| 20260901055902 | 63 | 13 | 1.0 | 3.0 | 0.00 | 0.00 | 0.00 | 70 | 1007.7 |
| 20260901055409 | 64 | 9 | 1.0 | 2.0 | 0.00 | 0.00 | 0.00 | 69 | 1007.8 |
| 20260901054905 | 64 | 359 | 1.0 | 2.0 | 0.00 | 0.00 | 0.00 | 68 | 1007.8 |
| 20260901054339 | 65 | 331 | 1.0 | 2.0 | 0.00 | 0.00 | 0.00 | 65 | 1007.8 |
| 20260901053833 | 65 | 331 | 0.0 | 2.0 | 0.00 | 0.00 | 0.00 | 64 | 1007.8 |
| 20260901053338 | 65 | 331 | 0.0 | 1.0 | 0.00 | 0.00 | 0.00 | 64 | 1007.8 |
| 20260901053051 | 65 | 331 | 1.0 | 2.0 | 0.00 | 0.00 | 0.00 | 62 | 1007.8 |
| 20260901052335 | 65 | 331 | 2.0 | 3.0 | 0.00 | 0.00 | 0.00 | 61 | 1007.8 |
| 20260901051833 | 65 | 331 | 3.0 | 4.0 | 0.00 | 0.00 | 0.00 | 61 | 1007.8 |
| 20260901051610 | 66 | 330 | 3.0 | 4.0 | 0.00 | 0.00 | 0.00 | 62 | 1007.8 |
| 20260901051102 | 66 | 337 | 3.0 | 4.0 | 0.00 | 0.00 | 0.00 | 64 | 1007.8 |
| 20260901050253 | 66 | 359 | 3.0 | 4.0 | 0.00 | 0.00 | 0.00 | 64 | 1007.8 |
| 20260901050114 | 66 | 20 | 3.0 | 4.0 | 0.00 | 0.00 | 0.00 | 60 | 1007.8 |
| 20260901045256 | 67 | 32 | 3.0 | 5.0 | 0.00 | 0.00 | 0.00 | 62 | 1007.8 |
| 20260901045054 | 67 | 27 | 3.0 | 5.0 | 0.00 | 0.00 | 0.00 | 59 | 1007.8 |
| 20260901044535 | 67 | 36 | 3.0 | 5.0 | 0.00 | 0.00 | 0.00 | 59 | 1007.8 |
| 20260901043740 | 67 | 24 | 4.0 | 7.0 | 0.00 | 0.00 | 0.00 | 59 | 1007.6 |
| 20260901043238 | 68 | 4 | 4.0 | 7.0 | 0.00 | 0.00 | 0.00 | 59 | 1007.6 |
| 20260901042737 | 68 | 24 | 5.0 | 9.0 | 0.00 | 0.00 | 0.00 | 57 | 1007.6 |
| 20260901042235 | 68 | 15 | 5.0 | 9.0 | 0.00 | 0.00 | 0.00 | 56 | 1007.6 |
| 20260901041738 | 68 | 21 | 5.0 | 9.0 | 0.00 | 0.00 | 0.00 | 57 | 1007.6 |
| 20260901041547 | 68 | 32 | 4.0 | 6.0 | 0.00 | 0.00 | 0.00 | 56 | 1007.6 |
| 20260901041102 | 68 | 16 | 3.0 | 6.0 | 0.00 | 0.00 | 0.00 | 55 | 1007.6 |
| 20260901040235 | 69 | 27 | 3.0 | 5.0 | 0.00 | 0.00 | 0.00 | 58 | 1007.6 |
| 20260901035739 | 69 | 29 | 3.0 | 6.0 | 0.00 | 0.00 | 0.00 | 55 | 1007.6 |
| 20260901035232 | 69 | 353 | 4.0 | 6.0 | 0.00 | 0.00 | 0.00 | 53 | 1007.3 |
| 20260901034733 | 69 | 346 | 4.0 | 6.0 | 0.00 | 0.00 | 0.00 | 53 | 1007.3 |
| 20260901034234 | 69 | 38 | 4.0 | 6.0 | 0.00 | 0.00 | 0.00 | 55 | 1007.3 |
| 20260901033729 | 69 | 350 | 3.0 | 5.0 | 0.00 | 0.00 | 0.00 | 54 | 1007.1 |
| 20260901033224 | 70 | 344 | 3.0 | 4.0 | 0.00 | 0.00 | 0.00 | 55 | 1007.1 |
| 20260901032725 | 70 | 359 | 2.0 | 4.0 | 0.00 | 0.00 | 0.00 | 54 | 1007.1 |
| 20260901032226 | 71 | 354 | 2.0 | 4.0 | 0.00 | 0.00 | 0.00 | 53 | 1007.1 |
| 20260901031720 | 71 | 352 | 3.0 | 6.0 | 0.00 | 0.00 | 0.00 | 53 | 1007.1 |
| 20260901031217 | 71 | 348 | 3.0 | 6.0 | 0.00 | 0.00 | 0.00 | 52 | 1007.1 |
| 20260901030717 | 71 | 359 | 3.0 | 6.0 | 0.00 | 0.00 | 0.00 | 50 | 1006.8 |
| 20260901030223 | 72 | 33 | 4.0 | 6.0 | 0.00 | 0.00 | 0.00 | 49 | 1006.8 |
| 20260901025718 | 72 | 30 | 4.0 | 6.0 | 0.00 | 0.00 | 0.00 | 49 | 1006.8 |
| 20260901025211 | 73 | 70 | 4.0 | 6.0 | 0.00 | 0.00 | 0.00 | 49 | 1006.7 |
| 20260901024711 | 73 | 16 | 4.0 | 7.0 | 0.00 | 0.00 | 0.00 | 48 | 1006.7 |
| 20260901024220 | 73 | 18 | 4.0 | 7.0 | 0.00 | 0.00 | 0.00 | 47 | 1006.7 |
| 20260901023710 | 74 | 42 | 4.0 | 7.0 | 0.00 | 0.00 | 0.00 | 47 | 1006.6 |
| 20260901023202 | 74 | 24 | 5.0 | 8.0 | 0.00 | 0.00 | 0.00 | 46 | 1006.6 |
| 20260901023013 | 75 | 47 | 5.0 | 8.0 | 0.00 | 0.00 | 0.00 | 45 | 1006.6 |
| 20260901022203 | 75 | 63 | 4.0 | 7.0 | 0.00 | 0.00 | 0.00 | 44 | 1006.7 |
| 20260901021705 | 75 | 34 | 4.0 | 6.0 | 0.00 | 0.00 | 0.00 | 44 | 1006.7 |
| 20260901021545 | 75 | 50 | 4.0 | 9.0 | 0.00 | 0.00 | 0.00 | 44 | 1006.7 |
| 20260901020701 | 76 | 62 | 4.0 | 9.0 | 0.00 | 0.00 | 0.00 | 44 | 1006.7 |
| 20260901020516 | 76 | 46 | 5.0 | 9.0 | 0.00 | 0.00 | 0.00 | 43 | 1006.7 |
| 20260901015648 | 76 | 79 | 4.0 | 9.0 | 0.00 | 0.00 | 0.00 | 39 | 1006.7 |
| 20260901015517 | 76 | 45 | 3.0 | 6.0 | 0.00 | 0.00 | 0.00 | 43 | 1006.9 |
| 20260901014645 | 76 | 34 | 4.0 | 8.0 | 0.00 | 0.00 | 0.00 | 42 | 1006.9 |
| 20260901014140 | 76 | 67 | 4.0 | 8.0 | 0.00 | 0.00 | 0.00 | 42 | 1007.0 |
| 20260901013640 | 76 | 65 | 5.0 | 9.0 | 0.00 | 0.00 | 0.00 | 42 | 1007.0 |
| 20260901013140 | 76 | 74 | 5.0 | 10.0 | 0.00 | 0.00 | 0.00 | 41 | 1007.0 |
| 20260901012644 | 76 | 70 | 5.0 | 10.0 | 0.00 | 0.00 | 0.00 | 41 | 1007.1 |
| 20260901012138 | 77 | 83 | 5.0 | 9.0 | 0.00 | 0.00 | 0.00 | 41 | 1007.1 |
| 20260901011634 | 77 | 90 | 4.0 | 7.0 | 0.00 | 0.00 | 0.00 | 41 | 1007.1 |
| 20260901011134 | 77 | 71 | 3.0 | 6.0 | 0.00 | 0.00 | 0.00 | 40 | 1007.1 |
| 20260901010636 | 78 | 114 | 2.0 | 6.0 | 0.00 | 0.00 | 0.00 | 39 | 1007.1 |
| 20260901010138 | 78 | 14 | 2.0 | 5.0 | 0.00 | 0.00 | 0.00 | 39 | 1007.1 |
| 20260901005632 | 77 | 65 | 4.0 | 6.0 | 0.00 | 0.00 | 0.00 | 40 | 1007.1 |
| 20260901005136 | 77 | 71 | 4.0 | 6.0 | 0.00 | 0.00 | 0.00 | 40 | 1007.1 |
| 20260901004631 | 77 | 77 | 4.0 | 6.0 | 0.00 | 0.00 | 0.00 | 39 | 1007.1 |
| 20260901004130 | 77 | 45 | 4.0 | 6.0 | 0.00 | 0.00 | 0.00 | 39 | 1007.1 |
| 20260901003637 | 77 | 74 | 4.0 | 6.0 | 0.00 | 0.00 | 0.00 | 40 | 1007.1 |
| 20260901003132 | 77 | 105 | 3.0 | 6.0 | 0.00 | 0.00 | 0.00 | 39 | 1007.1 |
| 20260901002924 | 78 | 39 | 2.0 | 4.0 | 0.00 | 0.00 | 0.00 | 39 | 1007.2 |
| 20260901002140 | 77 | 32 | 2.0 | 4.0 | 0.00 | 0.00 | 0.00 | 39 | 1007.2 |
| 20260901001643 | 77 | 344 | 2.0 | 6.0 | 0.00 | 0.00 | 0.00 | 39 | 1007.2 |
| 20260901001135 | 77 | 19 | 3.0 | 6.0 | 0.00 | 0.00 | 0.00 | 40 | 1007.4 |
| 20260901000620 | 77 | 340 | 3.0 | 5.0 | 0.00 | 0.00 | 0.00 | 40 | 1007.4 |
| 20260901000119 | 76 | 9 | 3.0 | 5.0 | 0.00 | 0.00 | 0.00 | 41 | 1007.4 |
| 20260831235616 | 76 | 4 | 3.0 | 4.0 | 0.00 | 0.00 | 0.00 | 43 | 1007.6 |
| 20260831235354 | 76 | 13 | 3.0 | 4.0 | 0.00 | 0.00 | 0.00 | 42 | 1007.6 |
| 20260831234609 | 77 | 340 | 3.0 | 5.0 | 0.00 | 0.00 | 0.00 | 41 | 1007.6 |
| 20260831234111 | 77 | 323 | 3.0 | 5.0 | 0.00 | 0.00 | 0.00 | 41 | 1007.6 |
| 20260831233604 | 77 | 346 | 3.0 | 5.0 | 0.00 | 0.00 | 0.00 | 40 | 1007.6 |
| 20260831233102 | 77 | 340 | 3.0 | 4.0 | 0.00 | 0.00 | 0.00 | 41 | 1007.6 |
| 20260831232606 | 76 | 329 | 3.0 | 6.0 | 0.00 | 0.00 | 0.00 | 40 | 1007.6 |
| 20260831232110 | 76 | 344 | 3.0 | 6.0 | 0.00 | 0.00 | 0.00 | 41 | 1007.6 |
| 20260831231607 | 76 | 359 | 3.0 | 5.0 | 0.00 | 0.00 | 0.00 | 41 | 1007.6 |
| 20260831231108 | 76 | 331 | 3.0 | 5.0 | 0.00 | 0.00 | 0.00 | 41 | 1007.7 |
| 20260831230602 | 76 | 359 | 3.0 | 5.0 | 0.00 | 0.00 | 0.00 | 42 | 1007.7 |
| 20260831225614 | 75 | 354 | 4.0 | 6.0 | 0.00 | 0.00 | 0.00 | 44 | 1007.9 |
| 20260831225105 | 75 | 354 | 4.0 | 6.0 | 0.00 | 0.00 | 0.00 | 43 | 1007.9 |
| 20260831224606 | 75 | 13 | 4.0 | 6.0 | 0.00 | 0.00 | 0.00 | 44 | 1007.9 |
| 20260831224102 | 75 | 359 | 4.0 | 6.0 | 0.00 | 0.00 | 0.00 | 45 | 1008.1 |
| 20260831223556 | 75 | 17 | 4.0 | 6.0 | 0.00 | 0.00 | 0.00 | 43 | 1008.1 |